| time (UTC) | temp F | wind direction | speed MPH | gust MPH | rain 1hr in | rain 24hr in | rain mn in | humidity % | barometer mb |
| 20260905180604 | 97 | 163 | 1.0 | 8.0 | 0.00 | 0.00 | 0.00 | 50 | 1013.3 |
| 20260905175556 | 96 | 338 | 1.0 | 6.0 | 0.00 | 0.00 | 0.00 | 50 | 1013.3 |
| 20260905174616 | 96 | 32 | 1.0 | 6.0 | 0.00 | 0.00 | 0.00 | 53 | 1013.4 |
| 20260905172520 | 95 | 58 | 2.0 | 7.0 | 0.00 | 0.00 | 0.00 | 54 | 1013.7 |
| 20260905171504 | 95 | 110 | 1.0 | 4.0 | 0.00 | 0.00 | 0.00 | 54 | 1013.8 |
| 20260905170500 | 95 | 73 | 0.0 | 7.0 | 0.00 | 0.00 | 0.00 | 57 | 1014.0 |
| 20260905165517 | 94 | 71 | 1.0 | 7.0 | 0.00 | 0.00 | 0.00 | 57 | 1014.2 |
| 20260905164525 | 93 | 5 | 1.0 | 5.0 | 0.00 | 0.00 | 0.00 | 57 | 1014.1 |
| 20260905163500 | 93 | 42 | 2.0 | 7.0 | 0.00 | 0.00 | 0.00 | 57 | 1014.1 |
| 20260905162453 | 93 | 48 | 2.0 | 10.0 | 0.00 | 0.00 | 0.00 | 59 | 1014.3 |
| 20260905160327 | 92 | 36 | 1.0 | 6.0 | 0.00 | 0.00 | 0.00 | 63 | 1014.4 |
| 20260905154220 | 91 | 355 | 1.0 | 4.0 | 0.00 | 0.00 | 0.00 | 65 | 1014.4 |
| 20260905152021 | 90 | 340 | 1.0 | 5.0 | 0.00 | 0.00 | 0.00 | 64 | 1014.2 |
| 20260905151035 | 89 | 319 | 0.0 | 5.0 | 0.00 | 0.00 | 0.00 | 65 | 1014.3 |
| 20260905142732 | 85 | 279 | 0.0 | 2.0 | 0.00 | 0.00 | 0.00 | 72 | 1014.0 |
| 20260905141740 | 84 | 260 | 0.0 | 2.0 | 0.00 | 0.00 | 0.00 | 74 | 1014.0 |
| 20260905140720 | 83 | 260 | 0.0 | 1.0 | 0.00 | 0.00 | 0.00 | 75 | 1014.1 |
| 20260905135649 | 81 | 323 | 0.0 | 0.0 | 0.00 | 0.00 | 0.00 | 78 | 1014.1 |
| 20260905134618 | 80 | 295 | 0.0 | 0.0 | 0.00 | 0.00 | 0.00 | 80 | 1014.0 |
| 20260905133639 | 79 | 216 | 0.0 | 0.0 | 0.00 | 0.00 | 0.00 | 87 | 1014.0 |
| 20260905132623 | 77 | 216 | 0.0 | 0.0 | 0.00 | 0.00 | 0.00 | 92 | 1014.0 |
| 20260905131557 | 75 | 216 | 0.0 | 0.0 | 0.00 | 0.00 | 0.00 | 95 | 1014.0 |
| 20260905125412 | 71 | 216 | 0.0 | 0.0 | 0.00 | 0.00 | 0.00 | 97 | 1013.8 |
| 20260905122051 | 68 | 216 | 0.0 | 0.0 | 0.00 | 0.00 | 0.00 | 98 | 1013.7 |
| 20260905121056 | 68 | 216 | 0.0 | 0.0 | 0.00 | 0.00 | 0.00 | 97 | 1013.6 |
| 20260905114951 | 68 | 216 | 0.0 | 0.0 | 0.00 | 0.00 | 0.00 | 97 | 1013.5 |
| 20260905113923 | 68 | 216 | 0.0 | 0.0 | 0.00 | 0.00 | 0.00 | 97 | 1013.3 |
| 20260905111745 | 68 | 216 | 0.0 | 0.0 | 0.00 | 0.00 | 0.00 | 97 | 1013.2 |
| 20260905110719 | 68 | 216 | 0.0 | 0.0 | 0.00 | 0.00 | 0.00 | 97 | 1013.3 |
| 20260905105656 | 68 | 216 | 0.0 | 0.0 | 0.00 | 0.00 | 0.00 | 97 | 1013.3 |
| 20260905103518 | 68 | 216 | 0.0 | 0.0 | 0.00 | 0.00 | 0.00 | 96 | 1013.2 |
| 20260905102503 | 68 | 216 | 0.0 | 0.0 | 0.00 | 0.00 | 0.00 | 97 | 1013.3 |
| 20260905101524 | 68 | 216 | 0.0 | 0.0 | 0.00 | 0.00 | 0.00 | 96 | 1013.1 |
| 20260905100514 | 69 | 216 | 0.0 | 0.0 | 0.00 | 0.00 | 0.00 | 97 | 1013.3 |
| 20260905094343 | 69 | 216 | 0.0 | 0.0 | 0.00 | 0.00 | 0.00 | 96 | 1013.0 |
| 20260905093313 | 69 | 216 | 0.0 | 0.0 | 0.00 | 0.00 | 0.00 | 96 | 1013.0 |
| 20260905092247 | 69 | 216 | 0.0 | 0.0 | 0.00 | 0.00 | 0.00 | 96 | 1013.0 |
| 20260905091250 | 69 | 216 | 0.0 | 0.0 | 0.00 | 0.00 | 0.00 | 96 | 1013.0 |
| 20260905090244 | 69 | 216 | 0.0 | 0.0 | 0.00 | 0.00 | 0.00 | 96 | 1012.8 |
| 20260905084128 | 69 | 216 | 0.0 | 0.0 | 0.00 | 0.00 | 0.00 | 95 | 1012.9 |
| 20260905083057 | 69 | 216 | 0.0 | 0.0 | 0.00 | 0.00 | 0.00 | 95 | 1012.8 |
| 20260905082118 | 70 | 216 | 0.0 | 0.0 | 0.00 | 0.00 | 0.00 | 95 | 1012.8 |
| 20260905081106 | 70 | 216 | 0.0 | 0.0 | 0.00 | 0.00 | 0.00 | 95 | 1012.7 |
| 20260905080124 | 70 | 216 | 0.0 | 0.0 | 0.00 | 0.00 | 0.00 | 94 | 1012.8 |
| 20260905075140 | 70 | 216 | 0.0 | 0.0 | 0.00 | 0.00 | 0.00 | 94 | 1012.8 |
| 20260905073031 | 70 | 216 | 0.0 | 0.0 | 0.00 | 0.00 | 0.00 | 94 | 1012.9 |
| 20260905072017 | 70 | 216 | 0.0 | 0.0 | 0.00 | 0.00 | 0.00 | 94 | 1013.0 |
| 20260905071015 | 71 | 216 | 0.0 | 0.0 | 0.00 | 0.00 | 0.00 | 93 | 1013.2 |
| 20260905070018 | 71 | 216 | 0.0 | 0.0 | 0.00 | 0.00 | 0.00 | 93 | 1013.1 |
| 20260905063855 | 71 | 216 | 0.0 | 0.0 | 0.00 | 0.00 | 0.00 | 93 | 1013.1 |
| 20260905062905 | 71 | 216 | 0.0 | 0.0 | 0.00 | 0.00 | 0.00 | 93 | 1013.1 |
| 20260905060737 | 72 | 216 | 0.0 | 0.0 | 0.00 | 0.00 | 0.00 | 93 | 1013.1 |
| 20260905055754 | 72 | 216 | 0.0 | 0.0 | 0.00 | 0.00 | 0.00 | 93 | 1013.2 |
| 20260905054743 | 72 | 216 | 0.0 | 0.0 | 0.00 | 0.00 | 0.00 | 93 | 1013.1 |
| 20260905052612 | 73 | 216 | 0.0 | 0.0 | 0.00 | 0.00 | 0.00 | 92 | 1013.3 |
| 20260905051609 | 73 | 216 | 0.0 | 0.0 | 0.00 | 0.00 | 0.00 | 92 | 1013.3 |
| 20260905050550 | 73 | 216 | 0.0 | 0.0 | 0.00 | 0.00 | 0.00 | 92 | 1013.2 |
| 20260905045606 | 73 | 216 | 0.0 | 0.0 | 0.00 | 0.00 | 0.00 | 92 | 1013.1 |
| 20260905044532 | 73 | 216 | 0.0 | 0.0 | 0.00 | 0.00 | 0.00 | 91 | 1013.1 |
| 20260905043552 | 73 | 216 | 0.0 | 0.0 | 0.00 | 0.00 | 0.00 | 91 | 1013.1 |
| 20260905042558 | 74 | 216 | 0.0 | 0.0 | 0.00 | 0.00 | 0.00 | 91 | 1013.2 |
| 20260905041530 | 74 | 216 | 0.0 | 0.0 | 0.00 | 0.00 | 0.00 | 91 | 1013.2 |
| 20260905040555 | 74 | 216 | 0.0 | 0.0 | 0.00 | 0.00 | 0.00 | 91 | 1013.2 |
| 20260905035521 | 74 | 216 | 0.0 | 0.0 | 0.00 | 0.00 | 0.00 | 91 | 1013.2 |
| 20260905034530 | 74 | 216 | 0.0 | 0.0 | 0.00 | 0.00 | 0.00 | 90 | 1013.1 |
| 20260905033522 | 75 | 216 | 0.0 | 0.0 | 0.00 | 0.00 | 0.00 | 90 | 1013.0 |
| 20260905032526 | 75 | 216 | 0.0 | 0.0 | 0.00 | 0.00 | 0.00 | 90 | 1013.0 |
| 20260905031453 | 75 | 216 | 0.0 | 0.0 | 0.00 | 0.00 | 0.00 | 90 | 1012.9 |
| 20260905030420 | 75 | 216 | 0.0 | 0.0 | 0.00 | 0.00 | 0.00 | 89 | 1012.8 |
| 20260905025404 | 76 | 216 | 0.0 | 0.0 | 0.00 | 0.00 | 0.00 | 89 | 1012.6 |
| 20260905023211 | 76 | 216 | 0.0 | 0.0 | 0.00 | 0.00 | 0.00 | 89 | 1012.3 |
| 20260905022200 | 77 | 216 | 0.0 | 0.0 | 0.00 | 0.00 | 0.00 | 88 | 1012.2 |
| 20260905020015 | 78 | 216 | 0.0 | 0.0 | 0.00 | 0.00 | 0.00 | 86 | 1011.9 |
| 20260905015037 | 78 | 216 | 0.0 | 0.0 | 0.00 | 0.00 | 0.00 | 85 | 1011.8 |
| 20260905014018 | 79 | 216 | 0.0 | 0.0 | 0.00 | 0.00 | 0.00 | 84 | 1011.8 |
| 20260905013028 | 80 | 216 | 0.0 | 0.0 | 0.00 | 0.00 | 0.00 | 83 | 1011.6 |
| 20260905011957 | 81 | 216 | 0.0 | 0.0 | 0.00 | 0.00 | 0.00 | 81 | 1011.5 |
| 20260905011004 | 82 | 216 | 0.0 | 0.0 | 0.00 | 0.00 | 0.00 | 79 | 1011.4 |
| 20260905004747 | 84 | 216 | 0.0 | 0.0 | 0.00 | 0.00 | 0.00 | 75 | 1011.2 |
| 20260905003740 | 85 | 216 | 0.0 | 0.0 | 0.00 | 0.00 | 0.00 | 72 | 1011.1 |
| 20260905002755 | 87 | 216 | 0.0 | 0.0 | 0.00 | 0.00 | 0.00 | 69 | 1011.1 |
| 20260904235516 | 91 | 216 | 0.0 | 0.0 | 0.00 | 0.00 | 0.00 | 58 | 1011.2 |
| 20260904233430 | 94 | 239 | 0.0 | 0.0 | 0.00 | 0.00 | 0.00 | 54 | 1011.1 |
| 20260904232426 | 95 | 229 | 0.0 | 0.0 | 0.00 | 0.00 | 0.00 | 51 | 1011.1 |
| 20260904231409 | 96 | 183 | 0.0 | 6.0 | 0.00 | 0.00 | 0.00 | 49 | 1011.1 |
| 20260904230420 | 97 | 209 | 0.0 | 6.0 | 0.00 | 0.00 | 0.00 | 49 | 1011.1 |
| 20260904224308 | 98 | 229 | 0.0 | 3.0 | 0.00 | 0.00 | 0.00 | 47 | 1011.1 |
| 20260904223303 | 97 | 313 | 1.0 | 6.0 | 0.00 | 0.00 | 0.00 | 47 | 1011.2 |
| 20260904222254 | 98 | 230 | 2.0 | 6.0 | 0.00 | 0.00 | 0.00 | 46 | 1011.2 |
| 20260904221316 | 98 | 213 | 1.0 | 5.0 | 0.00 | 0.00 | 0.00 | 46 | 1011.4 |
| 20260904215140 | 98 | 355 | 1.0 | 6.0 | 0.00 | 0.00 | 0.00 | 48 | 1011.4 |
| 20260904214129 | 98 | 248 | 1.0 | 4.0 | 0.00 | 0.00 | 0.00 | 48 | 1011.5 |
| 20260904212012 | 99 | 190 | 0.0 | 6.0 | 0.00 | 0.00 | 0.00 | 48 | 1011.5 |
| 20260904211014 | 99 | 265 | 2.0 | 7.0 | 0.00 | 0.00 | 0.00 | 50 | 1011.7 |
| 20260904204854 | 99 | 217 | 0.0 | 4.0 | 0.00 | 0.00 | 0.00 | 46 | 1011.8 |
| 20260904203919 | 98 | 355 | 1.0 | 7.0 | 0.00 | 0.00 | 0.00 | 46 | 1012.0 |
| 20260904202923 | 98 | 311 | 2.0 | 7.0 | 0.00 | 0.00 | 0.00 | 47 | 1012.0 |
| 20260904200731 | 98 | 176 | 1.0 | 5.0 | 0.00 | 0.00 | 0.00 | 49 | 1012.3 |
| 20260904194514 | 97 | 190 | 0.0 | 2.0 | 0.00 | 0.00 | 0.00 | 50 | 1012.7 |
| 20260904193440 | 97 | 344 | 0.0 | 4.0 | 0.00 | 0.00 | 0.00 | 49 | 1012.8 |
| 20260904192440 | 97 | 213 | 0.0 | 3.0 | 0.00 | 0.00 | 0.00 | 50 | 1013.0 |
| 20260904191441 | 97 | 340 | 1.0 | 3.0 | 0.00 | 0.00 | 0.00 | 48 | 1013.0 |
| 20260904190437 | 97 | 160 | 1.0 | 5.0 | 0.00 | 0.00 | 0.00 | 54 | 1013.2 |
| 20260904185444 | 97 | 217 | 1.0 | 6.0 | 0.00 | 0.00 | 0.00 | 47 | 1013.4 |
| 20260904183319 | 96 | 238 | 1.0 | 5.0 | 0.00 | 0.00 | 0.00 | 53 | 1013.5 |